Rock Hill, SC

6:12 PM EDT on July 26, 2017 (GMT -0400)
Rock Hill-York County-Bryant

Weather History for KUZA - February, 2014

Change the Weather History Date:

Saturday, February 15, 2014

  Actual Average Record
Temperature  
Mean Temperature 38 °F -  
Max Temperature 48 °F 58 °F 79 °F (1989)
Min Temperature 28 °F 37 °F 18 °F (1960)
Degree Days  
Heating Degree Days 27    
Moisture  
Dew Point 27 °F    
Average Humidity 65    
Maximum Humidity 97    
Minimum Humidity 27    
Precipitation  
Precipitation 0.18 in - - ()
Sea Level Pressure  
Sea Level Pressure 29.79 in    
Wind  
Wind Speed 7 mph (West)    
Max Wind Speed 20 mph    
Max Gust Speed 29 mph    
Visibility 9 miles    
Events Rain    
Averages and records for this station are not official NWS values.
T = Trace of Precipitation, MM = Missing Value Source: NWS Daily Summary

Daily Weather History Graph

Daily Weather History Graph

Search for Another Location

Airport or City:

Trip Planner

Search our weather history database for the weather conditions in past years. The results will help you decide how hot, cold, wet, or windy it might be!

Date:

Astronomy

Feb. 15, 2014 Rise Set
Actual Time 7:10 AM EST 6:07 PM EST
Civil Twilight 6:44 AM EST 6:32 PM EST
Nautical Twilight 6:14 AM EST 7:02 PM EST
Astronomical Twilight 5:45 AM EST 7:32 PM EST
Moon 7:01 PM EST (2/15) 7:11 AM EST (2/15)
Length of Visible Light 11h 48m
Length of Day
10h 56m
Full, 100% of the Moon is Illuminated
Feb 15
Full
Feb 22
Last Quarter
Mar 1
New
Mar 8
First Quarter
Mar 16
Full

Hourly Weather History & Observations

Time (EST) Temp. Windchill Dew Point Humidity Pressure Visibility Wind Dir Wind Speed Gust Speed Precip Events Conditions
12:54 AM 43.0 °F 38.8 °F 32.0 °F 65% 29.67 in 10.0 mi SSW 6.9 mph - N/A   Overcast
1:54 AM 41.0 °F 38.0 °F 35.1 °F 79% 29.61 in 10.0 mi ESE 4.6 mph - 0.01 in   Overcast
2:54 AM 39.9 °F 35.8 °F 35.1 °F 83% 29.62 in 10.0 mi WSW 5.8 mph - 0.00 in Rain Light Rain
3:13 AM 42.1 °F 37.7 °F 35.1 °F 76% 29.60 in 10.0 mi WSW 6.9 mph - 0.00 in Rain Light Rain
3:29 AM 39.9 °F 35.1 °F 37.0 °F 89% 29.60 in 4.0 mi SSW 6.9 mph - 0.02 in Rain Rain
3:54 AM 39.0 °F - 37.0 °F 93% 29.58 in 5.0 mi Calm Calm - 0.05 in Rain Rain
4:54 AM 37.9 °F 32.1 °F 37.0 °F 97% 29.58 in 4.0 mi SW 8.1 mph - 0.06 in Rain Light Rain
5:06 AM 39.0 °F 34.0 °F 37.9 °F 96% 29.58 in 4.0 mi SW 6.9 mph - 0.01 in Rain Light Rain
5:15 AM 39.0 °F 34.0 °F 37.9 °F 96% 29.58 in 5.0 mi SW 6.9 mph - 0.02 in Rain Light Rain
5:54 AM 39.9 °F 35.8 °F 39.0 °F 97% 29.61 in 4.0 mi West 5.8 mph - 0.05 in Rain Light Rain
6:19 AM 39.9 °F 35.1 °F 37.9 °F 93% 29.61 in 6.0 mi West 6.9 mph - 0.01 in Rain Light Rain
6:54 AM 39.9 °F 33.9 °F 37.9 °F 93% 29.63 in 7.0 mi West 9.2 mph - 0.01 in   Overcast
7:54 AM 39.9 °F 33.4 °F 36.0 °F 86% 29.67 in 10.0 mi WNW 10.4 mph - N/A   Mostly Cloudy
8:54 AM 39.9 °F 32.9 °F 33.1 °F 77% 29.74 in 10.0 mi NW 11.5 mph - N/A   Mostly Cloudy
9:54 AM 43.0 °F 35.4 °F 28.0 °F 56% 29.78 in 10.0 mi NW 16.1 mph 26.5 mph N/A   Clear
10:54 AM 44.1 °F 35.9 °F 26.1 °F 49% 29.81 in 10.0 mi NNW 19.6 mph 26.5 mph N/A   Clear
11:54 AM 45.0 °F 39.7 °F 24.1 °F 44% 29.84 in 10.0 mi NW 10.4 mph 28.8 mph N/A   Clear
12:54 PM 46.0 °F 39.3 °F 19.0 °F 34% 29.85 in 10.0 mi NW 16.1 mph 24.2 mph N/A   Clear
1:54 PM 46.9 °F - 14.0 °F 27% 29.87 in 10.0 mi NW 13.8 mph 25.3 mph N/A   Clear
2:54 PM 48.0 °F - 21.0 °F 34% 29.89 in 10.0 mi West 12.7 mph 18.4 mph N/A   Clear
3:54 PM 48.0 °F - 19.9 °F 33% 29.92 in 10.0 mi WNW 11.5 mph 18.4 mph N/A   Clear
4:54 PM 46.9 °F - 16.0 °F 29% 29.96 in 10.0 mi WNW 10.4 mph - N/A   Clear
5:54 PM 44.1 °F 40.8 °F 12.0 °F 27% 29.99 in 10.0 mi WNW 5.8 mph - N/A   Clear
6:54 PM 37.0 °F 33.3 °F 18.0 °F 46% 30.01 in 10.0 mi West 4.6 mph - N/A   Clear
7:54 PM 36.0 °F 33.3 °F 16.0 °F 44% 30.05 in 10.0 mi South 3.5 mph - N/A   Clear
8:54 PM 28.9 °F - 19.9 °F 69% 30.06 in 10.0 mi Calm Calm - N/A   Clear
9:54 PM 28.9 °F 23.9 °F 19.9 °F 69% 30.07 in 10.0 mi North 4.6 mph - N/A   Clear
10:54 PM 32.0 °F 27.5 °F 17.1 °F 54% 30.08 in 10.0 mi North 4.6 mph - N/A   Clear
11:54 PM 34.0 °F - 16.0 °F 48% 30.06 in 10.0 mi Calm Calm - N/A   Partly Cloudy